FW6905 Weather Reports


Display with metric or nautical units.
time (UTC)temp
F
wind
direction
speed
MPH
gust
MPH
rain 1hr
in
rain 24hr
in
rain mn
in
humidity
%
barometer
mb
20260905184006 82 20 4.0 10.0 0.00 0.00 0.00 43 1020.8
20260905183505 82 31 5.0 9.0 0.00 0.00 0.00 43 1020.8
20260905183006 82 26 4.0 8.0 0.00 0.00 0.00 43 1020.8
20260905182505 82 20 4.0 15.0 0.00 0.00 0.00 43 1020.8
20260905182006 83 24 7.0 15.0 0.00 0.00 0.00 42 1020.8
20260905181505 83 20 5.0 11.0 0.00 0.00 0.00 43 1020.8
20260905181006 83 12 6.0 11.0 0.00 0.00 0.00 42 1020.8
20260905180505 83 20 2.0 8.0 0.00 0.00 0.00 43 1020.8
20260905180006 83 34 2.0 11.0 0.00 0.00 0.00 43 1020.8
20260905175505 83 39 4.0 12.0 0.00 0.00 0.00 43 1020.8
20260905175006 83 41 6.0 13.0 0.00 0.00 0.00 43 1020.8
20260905174505 83 39 7.0 13.0 0.00 0.00 0.00 43 1020.8
20260905172505 84 23 7.0 9.0 0.00 0.00 0.00 44 1018.8
20260905172005 84 8 3.0 9.0 0.00 0.00 0.00 45 1018.8
20260905171506 84 9 3.0 11.0 0.00 0.00 0.00 45 1018.8
20260905170505 84 9 3.0 13.0 0.00 0.00 0.00 45 1019.8
20260905170005 83 13 5.0 13.0 0.00 0.00 0.00 46 1019.8
20260905165505 83 8 6.0 9.0 0.00 0.00 0.00 47 1019.8
20260905165005 83 4 2.0 8.0 0.00 0.00 0.00 48 1019.8
20260905164505 83 325 2.0 4.0 0.00 0.00 0.00 52 1019.8
20260905163505 84 282 2.0 5.0 0.00 0.00 0.00 52 1019.8
20260905163005 84 28 1.0 4.0 0.00 0.00 0.00 50 1019.8
20260905162505 85 131 0.0 3.0 0.00 0.00 0.00 50 1018.8
20260905162006 85 133 0.0 3.0 0.00 0.00 0.00 50 1018.8
20260905161505 85 284 1.0 4.0 0.00 0.00 0.00 49 1018.8
20260905161006 85 299 1.0 4.0 0.00 0.00 0.00 49 1018.8
20260905160505 85 319 1.0 2.0 0.00 0.00 0.00 49 1018.8
20260905160006 86 193 0.0 2.0 0.00 0.00 0.00 49 1018.8
20260905155505 86 186 1.0 2.0 0.00 0.00 0.00 48 1018.8
20260905155006 86 265 1.0 2.0 0.00 0.00 0.00 47 1018.8
20260905154505 86 223 1.0 2.0 0.00 0.00 0.00 46 1018.8
20260905154006 86 195 1.0 3.0 0.00 0.00 0.00 46 1018.8
20260905153005 86 261 0.0 3.0 0.00 0.00 0.00 45 1018.8
20260905152505 87 238 1.0 3.0 0.00 0.00 0.00 43 1018.8
20260905152005 87 236 3.0 4.0 0.00 0.00 0.00 43 1018.8
20260905151505 87 267 2.0 7.0 0.00 0.00 0.00 42 1018.8
20260905151005 87 289 3.0 7.0 0.00 0.00 0.00 39 1018.8
20260905150506 87 304 3.0 6.0 0.00 0.00 0.00 39 1018.8
20260905150005 88 312 3.0 9.0 0.00 0.00 0.00 39 1018.8
20260905145505 88 299 6.0 9.0 0.00 0.00 0.00 39 1017.7
20260905145005 88 285 5.0 7.0 0.00 0.00 0.00 39 1017.7
20260905144005 88 233 4.0 6.0 0.00 0.00 0.00 38 1017.7
20260905143505 88 205 3.0 6.0 0.00 0.00 0.00 38 1017.7
20260905143005 88 250 6.0 6.0 0.00 0.00 0.00 37 1017.7
20260905142506 88 278 3.0 6.0 0.00 0.00 0.00 38 1017.7
20260905142005 88 270 4.0 6.0 0.00 0.00 0.00 38 1017.7
20260905141506 88 271 3.0 6.0 0.00 0.00 0.00 38 1017.7
20260905141005 88 273 4.0 6.0 0.00 0.00 0.00 37 1018.8
20260905140505 88 275 5.0 7.0 0.00 0.00 0.00 37 1018.8
20260905140005 88 278 4.0 7.0 0.00 0.00 0.00 37 1018.8
20260905135505 88 270 3.0 6.0 0.00 0.00 0.00 36 1018.8
20260905134505 88 284 3.0 5.0 0.00 0.00 0.00 36 1018.8
20260905133505 88 279 4.0 8.0 0.00 0.00 0.00 36 1018.8
20260905133005 88 277 2.0 8.0 0.00 0.00 0.00 36 1018.8
20260905132505 88 283 3.0 9.0 0.00 0.00 0.00 35 1018.8
20260905132005 88 293 6.0 9.0 0.00 0.00 0.00 36 1018.8
20260905131505 88 281 6.0 9.0 0.00 0.00 0.00 36 1018.8
20260905131005 89 273 4.0 9.0 0.00 0.00 0.00 36 1018.8
20260905130506 89 282 2.0 9.0 0.00 0.00 0.00 36 1018.8
20260905130005 89 288 0.0 6.0 0.00 0.00 0.00 36 1018.8
20260905125505 89 283 4.0 7.0 0.00 0.00 0.00 36 1018.8
20260905125005 89 284 4.0 7.0 0.00 0.00 0.00 36 1018.8
20260905124505 89 291 1.0 4.0 0.00 0.00 0.00 36 1018.8
20260905124005 89 277 2.0 4.0 0.00 0.00 0.00 36 1019.8
20260905123005 89 276 3.0 9.0 0.00 0.00 0.00 36 1019.8
20260905122505 88 276 3.0 10.0 0.00 0.00 0.00 37 1019.8
20260905122005 88 276 8.0 10.0 0.00 0.00 0.00 37 1019.8
20260905121505 88 284 1.0 6.0 0.00 0.00 0.00 37 1019.8
20260905121006 88 276 2.0 7.0 0.00 0.00 0.00 38 1019.8
20260905120505 88 275 6.0 8.0 0.00 0.00 0.00 37 1019.8
20260905120005 88 274 6.0 8.0 0.00 0.00 0.00 38 1019.8
20260905115505 88 279 2.0 6.0 0.00 0.00 0.00 39 1019.8
20260905115006 88 289 4.0 9.0 0.00 0.00 0.00 39 1019.8
20260905114506 88 295 4.0 9.0 0.00 0.00 0.00 38 1019.8
20260905114005 87 305 4.0 6.0 0.00 0.00 0.00 39 1019.8
20260905113006 87 308 3.0 6.0 0.00 0.00 0.00 35 1019.8
20260905112505 87 311 4.0 5.0 0.00 0.00 0.00 39 1019.8
20260905112005 87 287 4.0 5.0 0.00 0.00 0.00 43 1019.8
20260905111505 87 285 2.0 5.0 0.00 0.00 0.00 42 1019.8
20260905110505 86 183 2.0 4.0 0.00 0.00 0.00 47 1019.8
20260905110005 85 218 2.0 4.0 0.00 0.00 0.00 46 1019.8
20260905105505 85 313 1.0 4.0 0.00 0.00 0.00 50 1019.8
20260905105006 84 247 3.0 4.0 0.00 0.00 0.00 51 1019.8
20260905104505 84 160 0.0 4.0 0.00 0.00 0.00 53 1019.8
20260905104005 83 164 1.0 4.0 0.00 0.00 0.00 52 1018.8
20260905103505 83 150 3.0 4.0 0.00 0.00 0.00 53 1018.8
20260905103006 82 57 1.0 3.0 0.00 0.00 0.00 55 1018.8
20260905102505 82 50 2.0 3.0 0.00 0.00 0.00 56 1019.8
20260905102005 81 63 2.0 3.0 0.00 0.00 0.00 56 1019.8
20260905101005 81 129 2.0 4.0 0.00 0.00 0.00 57 1018.8
20260905100505 80 148 2.0 3.0 0.00 0.00 0.00 59 1018.8
20260905100005 80 139 1.0 2.0 0.00 0.00 0.00 59 1018.8
20260905095505 80 115 2.0 2.0 0.00 0.00 0.00 60 1019.8
20260905095005 80 119 1.0 2.0 0.00 0.00 0.00 60 1019.8
20260905094504 80 158 0.0 2.0 0.00 0.00 0.00 60 1019.8
20260905093505 79 158 0.0 2.0 0.00 0.00 0.00 60 1018.8
20260905093005 79 156 1.0 3.0 0.00 0.00 0.00 60 1018.8
20260905092005 79 154 2.0 3.0 0.00 0.00 0.00 61 1019.8
20260905091505 78 156 2.0 3.0 0.00 0.00 0.00 62 1019.8
20260905091005 78 137 2.0 3.0 0.00 0.00 0.00 62 1019.8
20260905090504 78 106 2.0 2.0 0.00 0.00 0.00 62 1019.8
20260905090006 78 74 2.0 2.0 0.00 0.00 0.00 62 1019.8
20260905085506 77 41 1.0 2.0 0.00 0.00 0.00 62 1019.8
20260905085005 77 49 1.0 3.0 0.00 0.00 0.00 62 1019.8
20260905084505 77 63 2.0 3.0 0.00 0.00 0.00 62 1019.8
20260905084005 77 83 2.0 3.0 0.00 0.00 0.00 63 1019.8
20260905083505 77 120 2.0 2.0 0.00 0.00 0.00 64 1019.8
20260905083005 76 154 1.0 2.0 0.00 0.00 0.00 64 1019.8
20260905082505 76 181 1.0 4.0 0.00 0.00 0.00 65 1018.8
20260905081505 76 211 2.0 3.0 0.00 0.00 0.00 65 1018.8
20260905081005 75 282 1.0 3.0 0.00 0.00 0.00 68 1019.8
20260905080505 75 306 2.0 3.0 0.00 0.00 0.00 72 1019.8
20260905080005 74 3 2.0 3.0 0.00 0.00 0.00 72 1019.8
20260905075505 74 86 0.0 3.0 0.00 0.00 0.00 73 1019.8
20260905074505 73 108 2.0 4.0 0.00 0.00 0.00 75 1019.8
20260905074005 72 94 1.0 3.0 0.00 0.00 0.00 75 1019.8
20260905073505 72 101 0.0 4.0 0.00 0.00 0.00 78 1019.8
20260905073005 71 117 2.0 4.0 0.00 0.00 0.00 80 1019.8
20260905072505 71 97 1.0 2.0 0.00 0.00 0.00 80 1019.8
20260905072005 70 85 0.0 2.0 0.00 0.00 0.00 80 1019.8
20260905071005 69 151 1.0 2.0 0.00 0.00 0.00 82 1019.8
20260905070504 69 125 2.0 2.0 0.00 0.00 0.00 82 1019.8
20260905070005 68 101 1.0 2.0 0.00 0.00 0.00 84 1019.8
20260905065505 68 98 0.0 3.0 0.00 0.00 0.00 84 1019.8
20260905065005 67 134 2.0 3.0 0.00 0.00 0.00 85 1019.8
20260905064504 67 158 2.0 2.0 0.00 0.00 0.00 86 1019.8
20260905064005 67 199 2.0 2.0 0.00 0.00 0.00 87 1019.8
20260905063505 66 261 0.0 2.0 0.00 0.00 0.00 86 1019.8
20260905063005 66 160 0.0 2.0 0.00 0.00 0.00 87 1019.8
20260905062005 65 95 2.0 3.0 0.00 0.00 0.00 87 1019.8
20260905061505 65 68 2.0 3.0 0.00 0.00 0.00 88 1019.8
20260905061005 64 67 2.0 3.0 0.00 0.00 0.00 88 1019.8
20260905060505 64 96 2.0 3.0 0.00 0.00 0.00 89 1019.8
20260905060005 64 116 1.0 3.0 0.00 0.00 0.00 90 1019.8
20260905055504 63 130 1.0 2.0 0.00 0.00 0.00 90 1019.8
20260905054505 63 68 0.0 1.0 0.00 0.00 0.00 88 1019.8
20260905053505 62 67 2.0 2.0 0.00 0.00 0.00 89 1019.8
20260905053005 62 101 1.0 2.0 0.00 0.00 0.00 88 1019.8
20260905052505 62 112 0.0 2.0 0.00 0.00 0.00 88 1019.8
20260905052005 62 112 0.0 2.0 0.00 0.00 0.00 88 1019.8
20260905051504 62 112 1.0 2.0 0.00 0.00 0.00 88 1019.8
20260905050505 62 70 0.0 2.0 0.00 0.00 0.00 87 1019.8
20260905050005 62 70 0.0 2.0 0.00 0.00 0.00 87 1019.8
20260905045505 62 68 1.0 2.0 0.00 0.00 0.00 87 1019.8
20260905044505 62 58 1.0 2.0 0.00 0.00 0.00 87 1019.8
20260905044005 62 56 0.0 3.0 0.00 0.00 0.00 87 1018.8
20260905043505 62 56 2.0 3.0 0.00 0.00 0.00 87 1018.8
20260905043004 62 59 2.0 2.0 0.00 0.00 0.00 87 1018.8
20260905042005 62 68 0.0 2.0 0.00 0.00 0.00 87 1018.8
20260905041505 62 68 0.0 2.0 0.00 0.00 0.00 87 1018.8
20260905041005 62 68 1.0 2.0 0.00 0.00 0.00 87 1018.8
20260905040505 62 78 1.0 3.0 0.00 0.00 0.00 87 1018.8
20260905035505 63 77 2.0 2.0 0.00 0.00 0.00 86 1019.8
20260905035004 63 68 1.0 2.0 0.00 0.00 0.00 86 1019.8
20260905034505 63 68 2.0 2.0 0.00 0.00 0.00 86 1019.8
20260905034005 63 0 0.0 0.0 0.00 0.00 0.00 86 1018.8
20260905033505 63 203 0.0 2.0 0.00 0.00 0.00 86 1018.8
20260905033004 63 53 0.0 2.0 0.00 0.00 0.00 86 1018.8
20260905032505 63 34 0.0 3.0 0.00 0.00 0.00 86 1019.8
20260905032004 63 55 2.0 3.0 0.00 0.00 0.00 85 1019.8
20260905031505 63 75 2.0 2.0 0.00 0.00 0.00 86 1019.8
20260905031005 63 81 2.0 2.0 0.00 0.00 0.00 86 1019.8
20260905030505 63 103 1.0 2.0 0.00 0.00 0.00 86 1019.8
20260905030004 63 108 0.0 2.0 0.00 0.00 0.00 86 1019.8
20260905025505 63 49 0.0 2.0 0.00 0.00 0.00 86 1019.8
20260905025005 63 46 1.0 2.0 0.00 0.00 0.00 86 1019.8
20260905024505 63 67 2.0 2.0 0.00 0.00 0.00 85 1019.8
20260905024005 63 104 1.0 2.0 0.00 0.00 0.00 86 1019.8
20260905023504 63 0 0.0 0.0 0.00 0.00 0.00 85 1019.8
20260905022505 63 112 0.0 2.0 0.00 0.00 0.00 85 1019.8
20260905022005 64 107 1.0 2.0 0.00 0.00 0.00 86 1019.8
20260905021505 64 80 1.0 3.0 0.00 0.00 0.00 86 1019.8
20260905021005 64 61 2.0 3.0 0.00 0.00 0.00 85 1019.8
20260905020505 64 74 2.0 3.0 0.00 0.00 0.00 85 1019.8
20260905020004 64 88 2.0 3.0 0.00 0.00 0.00 86 1019.8
20260905015505 64 104 0.0 2.0 0.00 0.00 0.00 85 1019.8
20260905015005 64 112 0.0 2.0 0.00 0.00 0.00 85 1019.8
20260905014504 64 113 2.0 2.0 0.00 0.00 0.00 85 1019.8
20260905014005 64 135 0.0 1.0 0.00 0.00 0.00 85 1019.8
20260905013504 64 132 0.0 2.0 0.00 0.00 0.00 86 1019.8
20260905013005 64 132 1.0 2.0 0.00 0.00 0.00 85 1019.8
20260905012504 64 112 0.0 2.0 0.00 0.00 0.00 85 1019.8
20260905012005 64 112 0.0 2.0 0.00 0.00 0.00 85 1019.8
20260905011505 64 112 0.0 2.0 0.00 0.00 0.00 85 1019.8
20260905011004 64 112 0.0 2.0 0.00 0.00 0.00 85 1019.8
20260905010005 64 112 0.0 2.0 0.00 0.00 0.00 85 1019.8
20260905005504 65 112 0.0 2.0 0.00 0.00 0.00 85 1018.8
20260905005005 65 111 0.0 1.0 0.00 0.00 0.00 85 1018.8
20260905004004 65 112 0.0 2.0 0.00 0.00 0.00 85 1019.8
20260905003505 65 112 0.0 2.0 0.00 0.00 0.00 84 1019.8
20260905003004 65 112 0.0 2.0 0.00 0.00 0.00 84 1019.8
20260905002505 65 112 0.0 2.0 0.00 0.00 0.00 85 1019.8
20260905002005 65 45 0.0 2.0 0.00 0.00 0.00 84 1019.8
20260905001505 65 45 0.0 2.0 0.00 0.00 0.00 84 1019.8
20260905001005 65 45 0.0 2.0 0.00 0.00 0.00 84 1019.8
20260905000505 65 58 0.0 2.0 0.00 0.00 0.00 82 1019.8
20260905000004 65 66 1.0 2.0 0.00 0.00 0.00 84 1019.8
20260904235505 65 68 2.0 2.0 0.00 0.00 0.00 84 1019.8
20260904235004 65 68 1.0 2.0 0.00 0.00 0.00 84 1019.8
20260904234505 65 0 0.0 0.0 0.00 0.00 0.00 82 1019.8
20260904234004 65 0 0.0 0.0 0.00 0.00 0.00 82 1019.8
20260904233505 66 68 0.0 2.0 0.00 0.00 0.00 82 1019.8
20260904233005 66 68 0.0 2.0 0.00 0.00 0.00 82 1019.8
20260904232505 66 0 0.0 0.0 0.00 0.00 0.00 82 1019.8
20260904232004 66 0 0.0 0.0 0.00 0.00 0.00 82 1019.8
20260904231505 66 0 0.0 0.0 0.00 0.00 0.00 81 1019.8
20260904230504 66 41 0.0 2.0 0.00 0.00 0.00 80 1019.8
20260904230004 66 31 0.0 2.0 0.00 0.00 0.00 80 1019.8
20260904225505 66 7 1.0 2.0 0.00 0.00 0.00 80 1019.8
20260904224505 67 0 0.0 0.0 0.00 0.00 0.00 80 1019.8
20260904223504 67 0 0.0 0.0 0.00 0.00 0.00 79 1020.8
20260904223005 67 0 0.0 0.0 0.00 0.00 0.00 79 1020.8
20260904222504 67 0 0.0 0.0 0.00 0.00 0.00 79 1019.8
20260904222005 67 0 0.0 0.0 0.00 0.00 0.00 78 1019.8
20260904221505 67 0 0.0 0.0 0.00 0.00 0.00 78 1019.8
20260904221005 67 337 0.0 1.0 0.00 0.00 0.00 78 1019.8
20260904220504 67 227 0.0 2.0 0.00 0.00 0.00 78 1019.8
20260904220009 67 221 0.0 2.0 0.00 0.00 0.00 78 1019.8
20260904215504 68 22 0.0 2.0 0.00 0.00 0.00 78 1020.8
20260904215005 68 22 0.0 2.0 0.00 0.00 0.00 77 1020.8
20260904214504 68 23 0.0 1.0 0.00 0.00 0.00 77 1020.8
20260904214005 68 0 0.0 0.0 0.00 0.00 0.00 77 1019.8
20260904213505 68 23 0.0 2.0 0.00 0.00 0.00 76 1019.8
20260904213005 68 23 0.0 2.0 0.00 0.00 0.00 76 1019.8
20260904212505 68 30 0.0 2.0 0.00 0.00 0.00 75 1020.8
20260904212008 68 89 1.0 2.0 0.00 0.00 0.00 74 1020.8
20260904211506 69 86 0.0 3.0 0.00 0.00 0.00 74 1020.8
20260904210007 69 45 0.0 1.0 0.00 0.00 0.00 74 1019.8
20260904205506 69 45 0.0 1.0 0.00 0.00 0.00 73 1019.8
20260904205007 69 0 0.0 0.0 0.00 0.00 0.00 73 1019.8
20260904204506 69 0 0.0 0.0 0.00 0.00 0.00 73 1019.8
20260904204007 69 0 0.0 0.0 0.00 0.00 0.00 73 1019.8
20260904203506 69 112 0.0 1.0 0.00 0.00 0.00 72 1019.8
20260904203006 69 112 0.0 1.0 0.00 0.00 0.00 73 1019.8
20260904202507 70 111 0.0 2.0 0.00 0.00 0.00 71 1020.8
20260904201506 70 112 2.0 2.0 0.00 0.00 0.00 71 1020.8
20260904201006 70 112 0.0 2.0 0.00 0.00 0.00 70 1020.8
20260904200506 70 0 0.0 0.0 0.00 0.00 0.00 70 1020.8
20260904200007 70 0 0.0 0.0 0.00 0.00 0.00 69 1020.8
20260904195506 71 112 0.0 2.0 0.00 0.00 0.00 69 1020.8
20260904195007 71 112 0.0 2.0 0.00 0.00 0.00 68 1020.8
20260904194506 71 112 0.0 2.0 0.00 0.00 0.00 69 1020.8
20260904194006 71 0 0.0 0.0 0.00 0.00 0.00 68 1020.8
20260904193006 72 111 0.0 2.0 0.00 0.00 0.00 66 1020.8
20260904192507 72 112 0.0 2.0 0.00 0.00 0.00 65 1020.8
20260904192006 72 112 0.0 2.0 0.00 0.00 0.00 65 1020.8
20260904191506 72 0 0.0 0.0 0.00 0.00 0.00 65 1020.8
20260904191006 72 0 0.0 0.0 0.00 0.00 0.00 64 1020.8
20260904190007 73 112 0.0 1.0 0.00 0.00 0.00 64 1020.8
20260904185506 73 112 0.0 2.0 0.00 0.00 0.00 63 1020.8
20260904185006 73 112 0.0 2.0 0.00 0.00 0.00 63 1020.8